(290556) = 2005 UG106 = 2010 VC129

Discovered at Kitt Peak on 2005-10-22 by Spacewatch.

Orbit

Orbit type: Main Belt

Note: WebGL enabled browser required.

epoch2024-03-31.0
epoch JD2460400.5
perihelion date2020-03-20.88831
perihelion JD2458929.38831
argument of perihelion (°)113.20946
ascending node (°)208.41764
inclination (°)8.46207
eccentricity0.1215984
perihelion distance (AU)2.6250741
Tisserand w.r.t. Jupiter3.2
ΔV w.r.t. Earth (km/sec)10.5
semimajor axis (AU)2.9884669
mean anomaly (°)280.65760
mean daily motion (°/day)0.19077930
aphelion distance (AU)3.352
period (years)5.17
P-vector [x]0.77922565
P-vector [y]-0.61527562
P-vector [z]-0.11934532
Q-vector [x]0.62281873
Q-vector [y]0.73890039
Q-vector [z]0.25714399
absolute magnitude16.47
phase slope0.15
uncertainty0
referenceMPEC 2024-F50
observations used236
oppositions14
arc length (days)8986
first opposition used1999
last opposition used2024
residual rms (arc-secs)0.79
perturbers coarse indicatorM-v
perturbers precise indicator003Ek
first observation date used1999-08-12.0
last observation date used2024-03-19.0
computer nameMPCLINUX
JD of orbit computation2456406.154396
perihelion JD uncertainty (days)3.0468E-04
argument of perihelion uncertainty (°)5.9423E-05
ascending node uncertainty (°)3.7163E-05
inclination uncertainty (°)8.4473E-06
eccentricity uncertainty 5.5993E-08
perihelion distance uncertainty (AU)1.5983E-07
Minimum Orbit Intersection Distances (in AU)
for orbit epoch: 2460400.5, reference: E2024-F50
Mercury2.21914
Venus1.91481
Earth1.62752
Mars1.28033
Jupiter2.00504
Saturn5.83565
Uranus15.143
Neptune26.8256

Observations

244 total observations over interval: 1999 08 12.30355 – 2024 03 19.628700
These data are available for download (format description).

Date (UT) J2000 RA J2000 Dec Magn Location Ref
1999 08 12.30355 21 43 23.43 -00 36 42.8 20.3 V 691 – Steward Observatory, Kitt Peak-Spacewatch MPS 367009
1999 08 12.30979 21 43 23.16 -00 36 44.6 20.4 V 691 – Steward Observatory, Kitt Peak-Spacewatch MPS 367009
1999 08 12.31539 21 43 22.91 -00 36 46.3 20.3 V 691 – Steward Observatory, Kitt Peak-Spacewatch MPS 367009
2003 05 10.17442 13 25 56.88 -08 25 45.6 22.3 V 291 – LPL/Spacewatch II MPS 367009
2003 05 10.20132 13 25 55.92 -08 25 36.7 21.6 V 291 – LPL/Spacewatch II MPS 367009
2003 05 10.22492 13 25 55.10 -08 25 28.9 21.8 V 291 – LPL/Spacewatch II MPS 367009
2004 06 22.37184 20 41 54.10 -05 20 03.2 20.6 V 691 – Steward Observatory, Kitt Peak-Spacewatch MPS 367009
2004 06 22.39679 20 41 53.60 -05 19 59.5 20.4 V 691 – Steward Observatory, Kitt Peak-Spacewatch MPS 367009
2004 06 22.42181 20 41 53.11 -05 19 55.9 20.5 V 691 – Steward Observatory, Kitt Peak-Spacewatch MPS 367009
2005 10 22.34797 03 54 37.93 +15 47 35.0 20.9 V 691 – Steward Observatory, Kitt Peak-Spacewatch MPS 147928
2005 10 22.36534 03 54 37.31 +15 47 29.8 20.9 V 691 – Steward Observatory, Kitt Peak-Spacewatch MPS 147928
2005 10 22.38264 03 54 36.69 +15 47 24.6 20.8 V 691 – Steward Observatory, Kitt Peak-Spacewatch MPS 147928
2005 10 27.37110 03 51 32.74 +15 21 41.7 20.5 V 691 – Steward Observatory, Kitt Peak-Spacewatch MPS 147928
2005 10 27.38851 03 51 32.00 +15 21 36.2 20.4 V 691 – Steward Observatory, Kitt Peak-Spacewatch MPS 147928
2005 10 27.40612 03 51 31.28 +15 21 30.7 20.7 V 691 – Steward Observatory, Kitt Peak-Spacewatch MPS 147928
2005 10 31.34679 03 48 47.49 +15 00 28.8 20.4 V 691 – Steward Observatory, Kitt Peak-Spacewatch MPS 147928
2005 10 31.36423 03 48 46.71 +15 00 22.9 20.6 V 691 – Steward Observatory, Kitt Peak-Spacewatch MPS 147928
2005 10 31.38155 03 48 45.92 +15 00 17.3 20.5 V 691 – Steward Observatory, Kitt Peak-Spacewatch MPS 147928
2005 11 01.35065 03 48 03.49 +14 55 02.0 19.9 V G96 – Mt. Lemmon Survey MPS 149772
2005 11 01.35732 03 48 03.16 +14 55 00.2 20.3 V G96 – Mt. Lemmon Survey MPS 149772
2005 11 01.36397 03 48 02.88 +14 54 58.2 20.2 V G96 – Mt. Lemmon Survey MPS 149772
2005 11 01.37065 03 48 02.59 +14 54 55.8 20.2 V G96 – Mt. Lemmon Survey MPS 149772
2008 03 11.37587 13 08 11.92 -11 03 43.5 21.1 V 691 – Steward Observatory, Kitt Peak-Spacewatch MPS 367009
2008 03 11.39358 13 08 11.34 -11 03 39.4 21.4 V 691 – Steward Observatory, Kitt Peak-Spacewatch MPS 367009
2008 03 11.40892 13 08 10.82 -11 03 35.2 20.9 V 691 – Steward Observatory, Kitt Peak-Spacewatch MPS 367009
2008 04 13.30174 12 45 56.70 -07 42 43.6 21.1 V G96 – Mt. Lemmon Survey MPS 367009
2008 04 13.30824 12 45 56.48 -07 42 40.6 21.1 V G96 – Mt. Lemmon Survey MPS 367009
2008 04 13.31473 12 45 56.12 -07 42 38.0 21.1 V G96 – Mt. Lemmon Survey MPS 367009
2008 04 13.32140 12 45 55.87 -07 42 35.1 20.9 V G96 – Mt. Lemmon Survey MPS 367009
2008 05 05.22565 12 33 12.09 -05 25 41.1 21.4 V G96 – Mt. Lemmon Survey MPS 367009
2008 05 05.23233 12 33 11.88 -05 25 39.4 21.9 V G96 – Mt. Lemmon Survey MPS 367009
2008 05 05.23898 12 33 11.70 -05 25 36.9 21.7 V G96 – Mt. Lemmon Survey MPS 367009
2008 05 05.24565 12 33 11.52 -05 25 35.0 21.5 V G96 – Mt. Lemmon Survey MPS 367009
2008 06 01.18362 12 29 01.42 -03 52 33.0 22.1 V G96 – Mt. Lemmon Survey MPS 367009
2008 06 01.19203 12 29 01.50 -03 52 31.9 21.1 V G96 – Mt. Lemmon Survey MPS 367009
2008 06 01.20037 12 29 01.57 -03 52 31.1 22.3 V G96 – Mt. Lemmon Survey MPS 367009
2008 06 01.20868 12 29 01.57 -03 52 30.5 21.4 V G96 – Mt. Lemmon Survey MPS 367009
2010 09 17.43578 03 00 13.93 +16 36 01.5 20.5 V G96 – Mt. Lemmon Survey MPS 357429
2010 09 17.44457 03 00 13.89 +16 35 59.6 20.8 V G96 – Mt. Lemmon Survey MPS 357429
2010 09 17.45336 03 00 13.82 +16 35 58.0 20.4 V G96 – Mt. Lemmon Survey MPS 357429
2010 09 17.46222 03 00 13.82 +16 35 56.5 20.4 V G96 – Mt. Lemmon Survey MPS 357429
2010 10 17.36817 02 48 30.74 +14 13 48.5 20.3 V G96 – Mt. Lemmon Survey MPS 357429
2010 10 17.37425 02 48 30.45 +14 13 46.0 20.3 V G96 – Mt. Lemmon Survey MPS 357429
2010 10 17.38028 02 48 30.20 +14 13 44.3 20.1 V G96 – Mt. Lemmon Survey MPS 357429
2010 10 17.38626 02 48 29.95 +14 13 41.9 20.2 V G96 – Mt. Lemmon Survey MPS 357430
2010 11 09.25193 02 30 55.80 +11 44 16.1 19.9 V 703 – Catalina Sky Survey MPS 357646
2010 11 09.25711 02 30 55.51 +11 44 15.6 20.6 V 703 – Catalina Sky Survey MPS 357646
2010 11 09.26230 02 30 55.40 +11 44 12.3 20.0 V 703 – Catalina Sky Survey MPS 357646
2010 11 09.26738 02 30 55.00 +11 44 12.0 20.3 V 703 – Catalina Sky Survey MPS 357646
2010 11 12.22456 02 28 40.69 +11 25 44.4 20.3 V G96 – Mt. Lemmon Survey MPS 357646
2010 11 12.23311 02 28 40.29 +11 25 41.4 20.3 V G96 – Mt. Lemmon Survey MPS 357646
2010 11 12.24182 02 28 39.90 +11 25 38.2 20.3 V G96 – Mt. Lemmon Survey MPS 357646
2010 11 12.25044 02 28 39.46 +11 25 35.1 20.2 V G96 – Mt. Lemmon Survey MPS 357646
2012 01 02.30413 08 03 55.15 +08 20 08.8 21.4 V G96 – Mt. Lemmon Survey MPS 407131
2012 01 02.31165 08 03 54.86 +08 20 08.7 21.4 V G96 – Mt. Lemmon Survey MPS 407131
2012 01 02.31916 08 03 54.43 +08 20 09.2 21.1 V G96 – Mt. Lemmon Survey MPS 407131
2012 01 02.32663 08 03 54.10 +08 20 09.7 21.7 V G96 – Mt. Lemmon Survey MPS 407131
2012 02 01.24270 07 39 49.75 +09 24 58.9 21.4 V G96 – Mt. Lemmon Survey MPS 411483
2012 02 01.25021 07 39 49.42 +09 25 00.4 21.4 V G96 – Mt. Lemmon Survey MPS 411483
2012 02 01.25779 07 39 49.03 +09 25 01.3 21.5 V G96 – Mt. Lemmon Survey MPS 411483
2012 02 01.26537 07 39 48.70 +09 25 03.3 21.4 V G96 – Mt. Lemmon Survey MPS 411483
2013 04 05.33795 11 57 54.571 -04 55 41.63 20.9 w F51 – Pan-STARRS 1, Haleakala MPS 463896
2013 04 05.35230 11 57 53.975 -04 55 35.90 20.8 w F51 – Pan-STARRS 1, Haleakala MPS 463896
2013 04 05.36667 11 57 53.379 -04 55 29.90 20.9 w F51 – Pan-STARRS 1, Haleakala MPS 463896
2013 04 05.38110 11 57 52.781 -04 55 23.84 21.0 w F51 – Pan-STARRS 1, Haleakala MPS 463896
2015 09 12.44453 01 54 00.191 +14 15 17.54 20.8 w F51 – Pan-STARRS 1, Haleakala MPS 628356
2015 09 12.45489 01 54 00.009 +14 15 15.20 20.9 w F51 – Pan-STARRS 1, Haleakala MPS 628356
2015 09 12.46531 01 53 59.835 +14 15 12.86 20.8 w F51 – Pan-STARRS 1, Haleakala MPS 628356
2015 09 12.47577 01 53 59.644 +14 15 10.59 20.7 w F51 – Pan-STARRS 1, Haleakala MPS 628356
2015 10 02.35016 01 44 32.85 +12 30 26.2 20.3 V 691 – Steward Observatory, Kitt Peak-Spacewatch MPS 630825
2015 10 02.36900 01 44 32.07 +12 30 18.5 20.3 V 691 – Steward Observatory, Kitt Peak-Spacewatch MPS 630825
2015 10 02.38785 01 44 31.29 +12 30 11.0 20.2 V 691 – Steward Observatory, Kitt Peak-Spacewatch MPS 630825
2015 10 10.28171 01 39 02.88 +11 35 06.2 20.1 r G45 – Space Surveillance Telescope, Atom Site MPS 635027
2015 10 10.28740 01 39 02.63 +11 35 03.2 20.8 r G45 – Space Surveillance Telescope, Atom Site MPS 635027
2015 10 10.31583 01 39 01.35 +11 34 50.6 20.2 r G45 – Space Surveillance Telescope, Atom Site MPS 635027
2015 10 10.32230 01 39 01.06 +11 34 47.6 20.4 r G45 – Space Surveillance Telescope, Atom Site MPS 635027
2015 10 16.36200 01 34 31.67 +10 49 48.4   691 – Steward Observatory, Kitt Peak-Spacewatch MPS 635027
2015 10 16.38080 01 34 30.80 +10 49 39.8   691 – Steward Observatory, Kitt Peak-Spacewatch MPS 635027
2015 10 16.39172 01 34 30.31 +10 49 35.0 19.9 V G96 – Mt. Lemmon Survey MPS 635027
2015 10 16.39778 01 34 30.05 +10 49 31.8 19.8 V G96 – Mt. Lemmon Survey MPS 635027
2015 10 16.39959 01 34 29.98 +10 49 30.2   691 – Steward Observatory, Kitt Peak-Spacewatch MPS 635027
2015 10 16.40386 01 34 29.77 +10 49 29.0 19.9 V G96 – Mt. Lemmon Survey MPS 635027
2015 10 16.40993 01 34 29.46 +10 49 26.1 19.7 V G96 – Mt. Lemmon Survey MPS 635027
2015 10 18.71458 01 32 45.71 +10 31 58.8 19.0 R D29 – Purple Mountain Observatory, XuYi Station MPS 641302
2015 10 18.72869 01 32 45.01 +10 31 52.4 19.7 R D29 – Purple Mountain Observatory, XuYi Station MPS 641302
2015 10 18.74280 01 32 44.49 +10 31 45.1 18.9 R D29 – Purple Mountain Observatory, XuYi Station MPS 641302
2015 10 23.24644 01 29 23.96 +09 57 40.1 20.2 V G96 – Mt. Lemmon Survey MPS 641302
2015 10 23.25156 01 29 23.72 +09 57 37.6 20.1 V G96 – Mt. Lemmon Survey MPS 641302
2015 10 23.25671 01 29 23.48 +09 57 35.5 20.2 V G96 – Mt. Lemmon Survey MPS 641302
